Location: El Carrer d�Abaix
(41.5797°N, 2.1791°E)
Time: 22:40:57
(UTC+00:00)

Daily predictions for brighter satellites

Satellite Brightness Start Highest point End
(mag) Time Altitude Azimuth Time Altitude Azimuth Time Altitude Azimuth
CZ-2C R/B 2.8 19:46:53 10° NNE 19:52:30 68° ESE 19:58:03 10° S
Milstar 3 Cent rocket 4.4 19:48:16 10° SSW 19:53:40 22° SE 20:02:07 10° E
STARLINK-1103 3.8 19:50:22 10° NW 19:54:30 69° NE 19:58:37 10° ESE
FREGAT/IRIS 4.0 19:53:20 10° SSW 19:55:46 32° W 19:58:13 10° NNW
H-2A R/B 3.4 19:52:04 10° SSW 19:56:52 41° W 20:01:49 10° NNW
STARLINK-1101 3.7 19:55:20 10° NW 19:59:29 75° NE 20:03:36 10° ESE
Cosmos 1943 Rocket 2.6 19:54:42 10° S 19:59:48 39° ESE 20:04:58 10° NE
USA 267 4.4 19:54:22 10° SSE 20:00:17 36° SW 20:06:15 10° WNW
STARLINK-1102 3.7 20:00:19 10° NW 20:04:28 82° NE 20:08:36 10° SE
NOSS 2-2 (C) 3.4 20:02:39 10° SW 20:06:10 71° NW 20:10:00 10° NNE
STARLINK-1111 3.6 20:05:19 10° NW 20:09:28 88° NE 20:13:26 11° SE
ATLAS 2AS CENTAUR R/B 3.6 20:05:09 10° S 20:12:02 34° ESE 20:18:59 10° NE
SL-4 R/B 2.4 20:08:07 10° SW 20:12:44 90° NW 20:17:36 10° NE
Cosmos 1833 Rocket 4.5 20:09:12 10° NW 20:13:54 28° WSW 20:18:35 10° SSW
STARLINK-1073 3.6 20:10:16 10° NW 20:14:26 84° SW 20:18:12 12° SE
NOSS 3-2 (A) 4.4 20:07:29 10° NNW 20:14:56 58° NE 20:22:52 11° SE
deb Kosmos-1763 4.1 20:14:45 10° NNW 20:18:22 77° WSW 20:21:56 10° SSE
USA 186 4.4 20:16:53 10° SW 20:18:30 14° W 20:20:12 10° NW
STARLINK-1121 3.7 20:15:15 10° NW 20:19:23 77° SW 20:22:58 13° SE
Lacrosse 5 4.0 20:15:57 10° WNW 20:19:28 19° WSW 20:22:58 10° SSW
STARLINK-29 2.8 20:18:45 10° SW 20:21:58 82° SE 20:25:12 10° NE
Cosmos 1437 Rocket 3.4 20:18:27 10° SSW 20:22:11 56° WNW 20:25:59 10° N
STARLINK-1106 3.7 20:20:14 10° NW 20:24:22 70° SW 20:27:45 15° SE
Okean 1 Rocket 3.2 20:22:26 10° N 20:26:51 62° E 20:30:51 12° SSE
Cosmos 1900 4.4 20:23:24 10° NNW 20:28:29 77° ENE 20:32:47 15° SE
STARLINK-1112 3.8 20:25:14 10° WNW 20:29:21 64° SW 20:32:33 16° SE
USA 238 DEB 4.1 20:22:49 10° NNW 20:30:02 66° NE 20:36:27 15° SE
USA 238 4.1 20:22:55 10° NNW 20:30:07 66° NE 20:36:34 15° SE
Cosmos 2082 Rocket 3.6 20:26:42 10° NW 20:31:46 34° WSW 20:36:48 10° SSW
ATLAS CENTAUR R/B 2.5 20:28:40 10° S 20:32:23 26° ESE 20:35:56 10° ENE
IGS 5A 4.2 20:29:40 15° SE 20:32:39 37° ENE 20:36:30 10° N
MetOp-B 4.3 20:28:19 12° SSE 20:33:13 64° ENE 20:38:32 10° N
Okean 2 4.2 20:30:51 14° SSE 20:33:51 34° E 20:37:39 10° NNE
STARLINK-1128 3.9 20:30:13 10° WNW 20:34:17 58° SW 20:37:19 17° SSE
Cosmos 2369 Rocket 2.3 20:29:34 10° S 20:35:05 56° ESE 20:40:36 10° NNE
STARLINK-1320 3.8 20:35:01 10° SSW 20:37:43 27° SE 20:40:26 10° ENE
STARLINK-1322 3.7 20:35:22 10° SSW 20:38:04 27° SE 20:40:47 10° ENE
STARLINK-1324 3.7 20:35:40 10° SSW 20:38:23 28° SE 20:41:06 10° ENE
STARLINK-1294 3.7 20:36:00 10° SSW 20:38:41 28° SE 20:41:24 10° ENE
STARLINK-1261 3.7 20:36:20 10° SSW 20:39:04 28° SE 20:41:48 10° ENE
STARLINK-1113 4.0 20:35:14 10° WNW 20:39:16 52° SW 20:42:07 18° SSE
STARLINK-1325 3.7 20:36:41 10° SSW 20:39:25 28° SE 20:42:10 10° ENE
STARLINK-1333 3.7 20:37:03 10° SSW 20:39:47 29° SE 20:42:32 10° ENE
STARLINK-1334 3.7 20:37:20 10° SSW 20:40:04 29° SE 20:42:49 10° ENE
STARLINK-1326 3.7 20:37:39 10° SSW 20:40:23 29° SE 20:43:09 10° ENE
STARLINK-1323 3.7 20:38:01 10° SSW 20:40:46 29° SE 20:43:32 10° ENE
STARLINK-1349 3.6 20:38:18 10° SSW 20:41:03 29° SE 20:43:50 10° ENE
STARLINK-1336 3.6 20:38:38 10° SSW 20:41:23 30° SE 20:44:10 10° ENE
STARLINK-1331 3.6 20:39:00 10° SSW 20:41:46 30° SE 20:44:33 10° ENE
STARLINK-1344 3.6 20:39:18 10° SSW 20:42:04 30° SE 20:44:52 10° ENE
STARLINK-1343 3.6 20:39:39 10° SSW 20:42:27 30° SE 20:45:14 10° ENE
STARLINK-1346 3.6 20:39:57 10° SSW 20:42:44 31° SE 20:45:33 10° ENE
STARLINK-1328 3.6 20:40:22 10° SSW 20:43:09 31° SE 20:45:58 10° ENE
STARLINK-1354 3.6 20:40:39 10° SSW 20:43:27 31° SE 20:46:16 10° ENE
STARLINK-1347 3.6 20:40:56 10° SSW 20:43:44 31° SE 20:46:33 10° ENE
Cosmos 1766 3.6 20:39:59 10° N 20:43:53 49° E 20:46:21 20° SSE
STARLINK-1357 3.5 20:41:21 10° SSW 20:44:09 32° SE 20:46:59 10° ENE
STARLINK-1119 4.2 20:40:14 10° WNW 20:44:13 47° SW 20:46:53 19° SSE
STARLINK-1335 3.5 20:41:38 10° SSW 20:44:27 32° SE 20:47:16 10° ENE
STARLINK-1327 3.5 20:41:59 10° SSW 20:44:47 32° SE 20:47:38 10° ENE
STARLINK-1340 3.5 20:42:16 10° SSW 20:45:06 32° SE 20:47:56 10° ENE
STARLINK-1234 4.5 20:41:46 10° NW 20:45:07 35° NNE 20:47:48 14° E
STARLINK-1356 3.5 20:42:38 10° SSW 20:45:29 33° SE 20:48:19 10° ENE
STARLINK-1345 3.5 20:42:57 10° SSW 20:45:47 33° SE 20:48:38 10° ENE
STARLINK-1355 3.5 20:43:17 10° SSW 20:46:08 33° SE 20:48:59 10° ENE
STARLINK-1321 3.5 20:43:38 10° SSW 20:46:29 33° SE 20:49:20 10° ENE
STARLINK-1358 3.4 20:44:01 10° SSW 20:46:51 34° SE 20:49:43 10° ENE
STARLINK-1332 3.4 20:44:17 10° SSW 20:47:09 34° SE 20:50:01 10° ENE
STARLINK-1348 3.4 20:44:37 10° SSW 20:47:29 34° SE 20:50:22 10° ENE
STARLINK-1330 3.4 20:44:57 10° SSW 20:47:49 35° SE 20:50:42 10° ENE
STARLINK-1363 3.4 20:45:16 10° SSW 20:48:08 35° SE 20:51:01 10° ENE
Nadezhda 4 Rocket 4.0 20:42:07 10° S 20:48:15 87° W 20:54:24 10° N
STARLINK-1337 3.4 20:45:39 10° SSW 20:48:31 35° SE 20:51:24 10° ENE
STARLINK-1338 4.2 20:45:09 10° SSW 20:48:39 31° SE 20:52:10 10° ENE
STARLINK-1342 3.4 20:45:57 10° SSW 20:48:50 35° SE 20:51:44 10° ENE
STARLINK-1364 3.4 20:46:17 10° SSW 20:49:10 36° SE 20:52:04 10° ENE
STARLINK-1114 4.3 20:45:16 10° WNW 20:49:12 43° SW 20:51:41 20° SSE
STARLINK-1376 3.4 20:46:37 10° SSW 20:49:30 36° SE 20:52:24 10° ENE
STARLINK-1360 3.3 20:46:58 10° SSW 20:49:50 36° SE 20:52:45 10° ENE
STARLINK-1361 3.3 20:47:18 10° SSW 20:50:11 37° SE 20:53:06 10° ENE
STARLINK-1228 4.3 20:46:58 10° NW 20:50:27 39° NNE 20:53:01 16° E
STARLINK-1367 3.3 20:47:34 10° SSW 20:50:28 37° SE 20:53:23 10° ENE
H-2A ROCKET BODY 4.4 20:45:01 10° SSW 20:50:37 29° SE 21:09:09 10° E
STARLINK-1366 3.3 20:47:56 10° SSW 20:50:50 37° SE 20:53:45 10° ENE
Resurs 01 Rocket 2.5 20:48:11 10° S 20:52:30 48° W 20:56:49 10° NNW
USA 245 2.2 20:52:38 34° SE 20:53:32 61° ENE 20:55:52 10° N
STARLINK-1130 (DARKSAT) 4.5 20:50:15 10° WNW 20:54:08 39° SW 20:56:26 20° SSE
STARLINK-1371 4.0 20:53:12 10° SSW 20:56:50 36° SE 21:00:28 10° ENE
STARLINK-52 3.8 20:54:12 10° WSW 20:57:21 51° NW 21:00:30 10° NE
SPOT 5 3.7 20:57:53 21° SE 21:01:02 42° ENE 21:06:04 10° N
STARLINK-1341 3.9 20:57:35 10° SSW 21:01:18 39° SE 21:05:02 10° ENE
Spot 2 Rocket 3.5 20:57:35 18° SSE 21:01:22 89° W 21:06:27 10° NNW
Cosmos 1378 3.6 20:58:05 10° SSW 21:01:45 59° W 21:05:25 10° N
BREEZE-M DEB 3.1 21:01:55 10° WSW 21:04:09 54° NNW 21:08:48 10° ENE
CENTAUR R/B 3.4 20:56:39 10° NNW 21:04:45 67° NE 21:11:10 20° SE
Terra 2.9 21:02:43 20° ESE 21:05:02 31° ENE 21:09:13 10° N
STARLINK-1374 3.8 21:01:47 10° SSW 21:05:33 43° SE 21:09:21 10° ENE
STARLINK-1339 3.7 21:06:01 10° SSW 21:09:50 47° SE 21:13:41 10° ENE
ATLAS 3B R/B 3.7 21:06:40 10° NNW 21:12:53 36° NE 21:18:07 15° ESE
STARLINK-1377 3.6 21:10:16 10° SSW 21:14:08 51° SE 21:18:01 10° ENE
Cosmos 1726 4.4 21:12:32 10° NE 21:14:09 12° ENE 21:14:42 12° E
SAR-Lupe-2 4.0 21:11:47 10° N 21:15:20 63° WNW 21:18:12 15° SSW
Cosmos 1805 3.8 21:12:06 10° NNW 21:15:57 54° W 21:18:19 21° SSW
APEX 4.3 21:11:01 10° SSW 21:17:31 81° WNW 21:22:49 10° NNE
STARLINK-1353 3.5 21:14:31 10° SW 21:18:25 56° SE 21:22:20 10° ENE
Cosmos 1470 3.4 21:18:36 10° N 21:22:15 39° ENE 21:23:07 34° ESE
STARLINK-1375 3.4 21:18:48 10° SW 21:22:45 61° SE 21:26:42 10° ENE
FALCON 9 DEB 4.0 21:20:33 10° WSW 21:23:53 51° NNW 21:27:15 10° NE
BREEZE-M DEB (TANK) 3.7 21:12:25 10° SW 21:23:54 43° SSE 21:27:51 10° ENE
Cosmos 1733 3.5 21:22:27 10° NNW 21:26:13 62° W 21:27:51 31° SSW
Cosmos 1174 3.2 21:26:27 55° SSE 21:26:53 63° ESE 21:30:26 10° NE
Meteor 1-22 Rocket 4.4 21:21:11 10° NNW 21:26:56 71° W 21:30:28 23° S
STARLINK-1350 3.4 21:23:05 10° SW 21:27:03 67° SE 21:31:02 10° ENE
NOSS 3-2 (C) 4.1 21:20:28 10° NW 21:28:11 87° WSW 21:33:29 26° SSE
COSMOS 2455 2.9 21:23:33 16° S 21:28:14 58° ESE 21:34:08 10° NE
STARLINK-1235 3.1 21:25:52 10° NW 21:29:21 76° NE 21:30:07 50° ESE
Cosmos 1842 3.6 21:28:37 23° SSW 21:30:54 63° W 21:34:45 10° N
ATLAS 3B CENTAUR R/B 4.0 21:16:26 10° WSW 21:31:13 38° SSW 21:35:21 26° SSE
STARLINK-1352 3.4 21:27:26 10° SW 21:31:26 73° SE 21:35:26 10° NE
Cosmos 1340 Rocket 4.5 21:28:20 10° NNE 21:31:29 21° ENE 21:32:10 20° E
Cosmos 1025 Rocket 3.4 21:30:38 37° SE 21:31:34 44° E 21:35:40 10° NNE
SL-27 R/B 3.1 21:29:07 10° NNW 21:32:32 46° WSW 21:33:33 34° SSW
SPOT 1/Viking Rocket 3.8 21:30:30 24° S 21:33:33 62° W 21:38:39 10° NNW
Cosmos 1975 Rocket 3.7 21:30:51 16° SSW 21:34:14 54° W 21:38:33 10° N
NOSS 3-4 (A) 3.4 21:28:45 10° SW 21:34:39 84° NW 21:40:57 10° NE
NOSS 3-4 (C) 3.4 21:28:51 10° SW 21:34:46 84° NW 21:41:03 10° NE
STARLINK-1368 3.4 21:31:49 10° SW 21:35:49 79° SE 21:39:50 10° NE
COSMOS 2487 3.7 21:32:54 10° N 21:35:54 27° ENE 21:36:14 26° ENE
STARLINK-1212 2.8 21:34:29 10° NW 21:37:39 73° NE 21:37:51 69° ENE
STARLINK-1105 2.8 21:35:08 10° NW 21:38:18 75° NE 21:38:31 70° ENE
STARLINK-1247 2.8 21:36:13 10° NW 21:39:26 77° NE 21:39:38 72° E
Cosmos 1486 Rocket 4.1 21:34:12 10° NNW 21:39:28 72° WSW 21:41:50 33° S
STARLINK-1227 2.8 21:36:51 10° NW 21:40:03 78° NE 21:40:12 74° ENE
STARLINK-1369 3.4 21:36:12 10° SW 21:40:13 86° SE 21:44:15 10° NE
STARLINK-1226 2.8 21:38:01 10° NW 21:41:11 80° NE 21:41:19 77° ENE
Cosmos 1354 Rocket 4.2 21:36:20 10° NNW 21:41:35 60° ENE 21:43:37 36° SE
RESURS DK-1 3.4 21:42:39 30° E 21:42:39 30° E 21:45:46 10° NE
STARLINK-1215 2.8 21:39:04 10° NW 21:42:17 82° NE 21:42:23 80° ENE
ATLAS 5 CENTAUR R/B 2.1 21:34:30 10° SSW 21:42:17 61° SE 21:45:06 10° NE
Cosmos 1943 Rocket 4.0 21:38:45 10° WSW 21:43:36 31° NW 21:48:33 10° N
Cosmos 1271 Rocket 2.6 21:42:55 48° S 21:43:57 87° E 21:47:56 10° N
MTI 4.1 21:40:59 10° NNE 21:43:38 49° ENE 21:43:38 49° ENE
STARLINK-1217 2.8 21:41:21 10° NW 21:44:34 86° NE 21:44:35 86° NE
STARLINK-1372 3.4 21:40:37 10° SW 21:44:38 87° NW 21:48:40 10° NE
STARLINK-1229 2.8 21:42:28 10° NW 21:45:38 87° NNW 21:45:38 87° NNW
Cosmos 1992 Rocket 4.0 21:42:02 18° SSW 21:45:54 79° WNW 21:51:09 10° NNE
STARLINK-1270 2.8 21:43:34 10° NW 21:46:44 86° NW 21:46:44 86° NW
Cosmos 1953 3.2 21:43:23 10° N 21:47:01 33° ENE 21:47:21 33° E
STARLINK-1378 3.5 21:45:01 10° SW 21:49:01 81° NW 21:53:03 10° NE
STARLINK-1189 2.9 21:45:58 10° NW 21:49:02 79° WNW 21:49:02 79° WNW
STARLINK-1188 2.9 21:47:11 10° NW 21:50:12 76° W 21:50:12 76° W
SL-4 R/B 4.3 21:48:44 10° W 21:52:59 31° NNW 21:57:18 10° NE
STARLINK-1191 3.1 21:49:48 10° NW 21:52:41 68° W 21:52:41 68° W
STARLINK-1379 3.6 21:49:29 10° WSW 21:53:29 75° NW 21:57:31 10° NE
Cosmos 1242 Rocket 3.6 21:52:26 26° SW 21:54:03 42° WNW 21:57:34 10° N
STARLINK-1221 3.1 21:51:03 10° NW 21:53:54 64° W 21:53:54 64° W
STARLINK-1222 3.2 21:52:14 10° NW 21:55:02 62° W 21:55:02 62° W
Cosmos 1707 2.6 21:55:21 65° S 21:55:53 84° E 21:59:46 10° N
STARLINK-1214 3.3 21:53:29 10° NW 21:56:18 60° W 21:56:18 60° W
Cosmos 1833 4.2 21:51:09 10° NNW 21:56:48 80° WSW 21:58:53 41° SSE
STARLINK-1329 3.7 21:53:13 10° WSW 21:57:14 70° NW 22:01:16 10° NE
ERS-1 Rocket 3.7 21:59:08 28° SSW 22:01:20 46° W 22:06:12 10° NNW
STARLINK-1362 3.9 21:57:44 10° WSW 22:01:45 65° NW 22:05:46 10° NE
Cosmos 1656 Rocket 4.2 21:56:59 10° SW 22:02:31 57° WNW 22:08:00 10° NNE
ATLAS 2AS CENTAUR R/B 3.5 21:54:50 10° SW 22:02:41 61° NW 22:10:35 10° NNE
Cosmos 1455 Rocket 4.1 22:01:02 10° NNW 22:05:02 38° W 22:06:35 28° SW
EO 1 Del DPAF 4.5 22:02:19 10° NNE 22:04:56 29° ENE 22:04:56 29° ENE
Cosmos 1758 3.5 22:02:03 10° NNW 22:06:07 68° W 22:06:46 56° SSW
STARLINK-1373 4.0 22:02:17 10° WSW 22:06:17 60° NW 22:10:17 10° NE
STARLINK-1209 4.3 22:04:44 10° WNW 22:07:22 35° WSW 22:07:22 35° WSW
STARLINK-1233 4.4 22:04:27 10° NW 22:08:28 47° NNE 22:09:38 36° ENE
STARLINK-1390 4.2 22:06:52 10° WSW 22:10:50 56° NNW 22:14:49 10° NE
ATLAS CENTAUR R/B 3.1 22:07:11 10° WSW 22:11:11 33° NW 22:14:59 10° NNE
BREEZE-M R/B 4.4 22:00:07 10° SW 22:12:15 70° SE 22:17:35 10° ENE
STARLINK-1204 4.2 22:09:24 10° NW 22:13:27 51° NNE 22:14:24 41° ENE
Meteor 1-16 Rocket 4.2 22:09:04 10° N 22:14:26 60° ENE 22:15:41 47° SE
Cosmos 968 Rocket 4.3 22:11:37 10° NW 22:16:24 41° WSW 22:17:57 32° SW
STARLINK-1365 4.4 22:12:42 10° WSW 22:16:41 50° NNW 22:20:41 10° NE
STARLINK-1238 4.1 22:14:22 10° NW 22:18:27 55° NNE 22:19:12 47° ENE
Cosmos 2369 Rocket 4.4 22:14:58 10° WSW 22:19:27 24° NW 22:23:56 10° N
S3M 3.9 22:13:42 10° N 22:19:56 88° W 22:22:10 43° S
Meteor 2-8 Rocket 4.4 22:16:25 10° N 22:22:35 82° W 22:24:43 44° S
STARLINK-1201 3.9 22:19:20 10° NW 22:23:27 60° NE 22:23:59 54° ENE
Cosmos 1867 4.0 22:18:25 10° NW 22:23:42 50° WSW 22:24:50 43° SSW
Cosmos 2315 Rocket 4.4 22:18:44 10° N 22:24:46 50° ENE 22:26:32 39° ESE
Cosmos 2227 Rocket 4.2 22:21:04 10° N 22:25:11 20° NE 22:28:23 13° E
STARLINK-1206 3.8 22:24:17 10° NW 22:28:25 65° NE 22:28:44 61° ENE
Cosmos 1553 Rocket 4.4 22:24:15 10° NNW 22:30:16 53° W 22:32:46 33° SSW
Milstar 3 Cent rocket 4.4 22:22:13 10° WSW 22:31:35 47° S 22:51:09 10° ESE
STARLINK-1205 3.7 22:29:15 10° NW 22:33:23 70° NE 22:33:31 70° NE
Cosmos 2084 4.2 22:32:51 27° WSW 22:35:04 53° NW 22:39:27 10° NNE
Cosmos 1908 3.8 22:33:21 10° N 22:36:36 48° NE 22:36:36 48° NE
STARLINK-1218 3.6 22:34:14 10° NW 22:38:19 76° NNE 22:38:19 76° NNE
Cosmos 1777 Rocket 4.0 22:33:43 10° NNW 22:38:58 70° ENE 22:39:51 57° ESE
KORONAS-FOTON 4.2 22:42:07 59° NE 22:42:07 59° NE 22:45:22 10° NNE
Terra 3.2 22:41:36 25° WSW 22:42:45 28° W 22:46:50 10° NW
In-Cosmos 22 4.3 22:41:25 44° SW 22:42:55 65° WNW 22:48:12 10° N
STARLINK-1254 3.7 22:39:13 10° NW 22:43:06 76° NNW 22:43:06 76° NNW
Meteor 2-5 Rocket 3.8 22:46:11 54° SE 22:46:55 59° E 22:52:28 10° NNE
STARLINK-1231 3.8 22:44:11 10° NW 22:47:53 70° NW 22:47:53 70° NW
Thor Agena Rocket 3.6 22:43:11 10° N 22:48:28 77° WNW 22:49:40 54° SW
Cosmos 1726 3.1 22:46:03 10° NNW 22:49:12 40° WNW 22:49:12 40° WNW
Cosmos 2266 Rocket 4.1 22:47:46 41° SSW 22:49:51 67° W 22:55:53 10° N
Cosmos 2292 Rocket 4.2 22:51:50 37° NW 22:51:50 37° NW 22:54:01 10° N
Cosmos 1674 3.1 22:53:26 59° NNW 22:53:26 59° NNW 22:56:42 10° N
STARLINK-1232 3.9 22:49:12 10° NW 22:52:41 61° WNW 22:52:41 61° WNW
CENTAUR R/B 4.2 22:47:59 10° NW 22:55:15 34° WSW 22:58:21 27° SSW
STARLINK-1208 4.1 22:54:10 10° NW 22:57:28 54° WNW 22:57:28 54° WNW
STARLINK-1271 4.3 22:59:09 10° WNW 23:02:14 47° WNW 23:02:14 47° WNW
ATLAS 3B R/B 3.0 22:57:11 10° NW 23:03:48 53° WSW 23:05:21 45° SSW
Meteor 2-21 4.5 23:04:49 56° SSE 23:05:59 68° E 23:12:09 10° NNE
SeaSat 1 2.3 23:02:17 10° NNE 23:07:15 84° ESE 23:07:35 77° S
Cosmos 1340 Rocket 4.3 23:04:24 10° NNW 23:07:46 28° W 23:07:46 28° W
Cosmos 1606 Rocket 3.6 23:04:20 10° NNW 23:08:26 69° WNW 23:08:26 69° WNW
Cosmos 1980 Rocket 4.2 23:10:05 14° E 23:10:05 14° E 23:12:24 10° ENE
Cosmos 2058 Rocket 3.4 23:05:39 10° N 23:09:53 57° ENE 23:09:53 57° ENE
Cosmos 1244 Rocket 4.4 23:12:34 58° SSE 23:13:44 75° E 23:19:53 10° N
ALOS 2 2.6 23:14:35 72° NE 23:14:35 72° NE 23:18:47 10° N
Cosmos 1626 3.1 23:20:51 46° NNE 23:20:51 46° NNE 23:23:33 10° N
RESURS DK-1 4.4 23:18:29 18° W 23:20:08 23° NW 23:23:29 10° N
STARLINK-1269 4.5 23:21:25 10° NW 23:25:25 46° NNE 23:25:46 44° NE
Nimbus 7 Rocket 4.5 23:20:57 10° N 23:27:00 74° WNW 23:28:31 52° SW
Meteor 1-24 Rocket 3.5 23:27:06 70° SSW 23:27:43 83° W 23:33:16 10° N
Cosmos 1656 3.5 23:27:54 69° SE 23:28:20 73° ESE 23:33:56 10° NNE
Cosmos 921 Rocket 3.7 23:29:32 45° WNW 23:29:39 45° WNW 23:33:53 10° N
Lacrosse 4 Rocket 3.0 23:26:37 10° N 23:30:19 28° NE 23:31:03 26° ENE
STARLINK-1200 4.3 23:26:22 10° NW 23:30:25 49° NNE 23:30:33 49° NE
Cosmos 2228 4.0 23:27:21 10° NNW 23:30:53 38° WNW 23:30:53 38° WNW
CZ-4C R/B 2.0 23:31:35 65° ESE 23:31:35 65° ESE 23:37:03 10° NE
Cosmos 2297 Rocket 2.3 23:26:21 10° NNW 23:32:00 69° ENE 23:32:59 57° ESE
SL-08 R/B 4.5 23:31:05 58° SSE 23:32:17 74° E 23:38:37 10° N
Meteor 2-14 Rocket 4.4 23:31:51 59° SSW 23:33:03 81° W 23:39:15 10° N
Cosmos 1898 Rocket 4.3 23:29:00 10° N 23:34:03 42° ENE 23:35:13 37° E
STARLINK-1192 4.2 23:31:21 10° NW 23:35:20 53° NNE 23:35:20 53° NNE
Cosmos 2219 3.0 23:30:15 10° NNW 23:35:56 90° WSW 23:36:34 72° SSE
Meteor 2-21 Rocket 4.4 23:36:06 62° S 23:37:15 89° W 23:43:30 10° N
STARLINK-1244 4.2 23:36:17 10° NW 23:40:06 56° NNE 23:40:06 56° NNE
Cosmos 192 4.3 23:43:01 76° W 23:43:12 77° WNW 23:48:11 10° NNE
Cosmos 990 Rocket 4.4 23:38:38 10° N 23:43:47 53° ENE 23:44:35 48° E
ATLAS CENTAUR R/B 3.3 23:42:09 10° NNW 23:43:35 27° N 23:43:35 27° N
STARLINK-1138 4.2 23:41:15 10° NW 23:44:52 57° N 23:44:52 57° N
Cosmos 2082 4.4 23:40:59 10° NNW 23:46:25 46° ENE 23:48:10 35° ESE
Helios 1A 3.2 23:47:33 67° N 23:47:33 67° N 23:51:12 10° NNW
Okean 1-7 Rocket 4.3 23:47:20 46° WNW 23:47:20 46° WNW 23:51:42 10° N
STARLINK-1143 4.2 23:46:14 10° NW 23:49:40 55° NNW 23:49:40 55° NNW
EO 1 Delta rocket 3.7 23:48:40 10° N 23:53:45 81° WNW 23:53:51 81° W
STARLINK-1241 4.3 23:51:13 10° NW 23:54:27 52° NNW 23:54:27 52° NNW
